• In Italy
  • List of Countries
  • For 7 days
  • Water Temperature
  • Satellite Maps
  • Weather Map
  • Weather Widgets
  • user-avatar
    Login

    Hourly Weather Gyor

    Today, 11 December, Monday

    Time Temperature Precipitation Wind Pressure Humidity
    00:00 +2°C° 0.3 mm 9 mps 740 mmHg 72%
    01:00 +3°C° 0 mm 7 mps 740 mmHg 72%
    02:00 +3°C° 0.1 mm 7 mps 739 mmHg 72%
    03:00 +2°C° 0.1 mm 8 mps 739 mmHg 72%
    04:00 +2°C° 0.1 mm 9 mps 739 mmHg 72%
    05:00 +4°C° 0 mm 8 mps 739 mmHg 74%
    06:00 +5°C° 0 mm 8 mps 738 mmHg 76%
    07:00 +5°C° 0 mm 8 mps 739 mmHg 78%
    08:00 +6°C° 0 mm 9 mps 739 mmHg 75%
    09:00 +7°C° 0 mm 9 mps 739 mmHg 72%
    10:00 +8°C° 0 mm 10 mps 739 mmHg 69%
    11:00 +9°C° 0 mm 11 mps 739 mmHg 68%
    12:00 +10°C° 0 mm 12 mps 739 mmHg 67%
    13:00 +9°C° 0 mm 12 mps 738 mmHg 66%
    14:00 +9°C° 0.1 mm 12 mps 739 mmHg 67%
    15:00 +9°C° 0.1 mm 11 mps 739 mmHg 68%
    16:00 +11°C° 0.1 mm 11 mps 739 mmHg 69%
    17:00 +11°C° 0 mm 11 mps 739 mmHg 69%
    18:00 +11°C° 0 mm 11 mps 739 mmHg 69%
    19:00 +11°C° 0 mm 11 mps 739 mmHg 68%
    20:00 +11°C° 0 mm 11 mps 739 mmHg 68%
    21:00 +11°C° 0 mm 11 mps 739 mmHg 68%
    22:00 +11°C° 0 mm 11 mps 739 mmHg 68%
    23:00 +11°C° 0 mm 11 mps 739 mmHg 68%

    Tomorrow, 12 December, Tuesday

    Time Temperature Precipitation Wind Pressure Humidity
    00:00 +11°C° 0 mm 11 mps 739 mmHg 67%
    01:00 +11°C° 0 mm 11 mps 739 mmHg 67%
    02:00 +11°C° 0 mm 11 mps 739 mmHg 67%
    03:00 +11°C° 0 mm 10 mps 739 mmHg 66%
    04:00 +11°C° 0 mm 10 mps 739 mmHg 66%
    05:00 +12°C° 0 mm 10 mps 740 mmHg 66%
    06:00 +12°C° 0 mm 9 mps 741 mmHg 67%
    07:00 +12°C° 0 mm 8 mps 742 mmHg 67%
    08:00 +11°C° 0.1 mm 7 mps 743 mmHg 68%
    09:00 +10°C° 0.1 mm 6 mps 744 mmHg 70%
    10:00 +10°C° 0.1 mm 5 mps 744 mmHg 71%
    11:00 +10°C° 0.1 mm 4 mps 745 mmHg 71%
    12:00 +10°C° 0.1 mm 4 mps 745 mmHg 71%
    13:00 +10°C° 0.1 mm 3 mps 746 mmHg 70%
    14:00 +8°C° 0.2 mm 4 mps 747 mmHg 70%
    15:00 +7°C° 0.2 mm 4 mps 748 mmHg 70%
    16:00 +7°C° 0.2 mm 5 mps 748 mmHg 70%
    17:00 +6°C° 0.6 mm 5 mps 749 mmHg 70%
    18:00 +5°C° 0.6 mm 5 mps 750 mmHg 70%
    19:00 +5°C° 0.6 mm 5 mps 751 mmHg 70%
    20:00 +3°C° 0.4 mm 5 mps 751 mmHg 70%
    21:00 +3°C° 0.4 mm 5 mps 752 mmHg 70%
    22:00 +3°C° 0.4 mm 5 mps 753 mmHg 69%
    23:00 +4°C° 0.3 mm 4 mps 753 mmHg 70%

    Day after tomorrow, 13 December, Wednesday

    Time Temperature Precipitation Wind Pressure Humidity
    00:00 +3°C° 0.3 mm 4 mps 754 mmHg 71%
    01:00 +3°C° 0.3 mm 4 mps 754 mmHg 72%
    02:00 +3°C° 0.1 mm 4 mps 755 mmHg 72%
    03:00 +3°C° 0.1 mm 4 mps 755 mmHg 72%
    04:00 +3°C° 0.1 mm 4 mps 755 mmHg 72%
    05:00 +1°C° 0 mm 4 mps 755 mmHg 74%
    06:00 +2°C° 0 mm 3 mps 755 mmHg 75%
    07:00 +2°C° 0 mm 3 mps 756 mmHg 76%
    08:00 +2°C° 0 mm 3 mps 756 mmHg 74%
    09:00 +2°C° 0 mm 3 mps 756 mmHg 71%
    10:00 +3°C° 0 mm 3 mps 756 mmHg 69%
    11:00 +3°C° 0 mm 3 mps 756 mmHg 66%
    12:00 +4°C° 0 mm 3 mps 755 mmHg 63%
    13:00 +5°C° 0 mm 2 mps 755 mmHg 60%
    14:00 +4°C° 0 mm 2 mps 754 mmHg 65%
    15:00 +3°C° 0 mm 2 mps 754 mmHg 69%
    16:00 +3°C° 0 mm 2 mps 753 mmHg 74%
    17:00 +2°C° 0 mm 2 mps 753 mmHg 76%
    18:00 +1°C° 0 mm 3 mps 753 mmHg 79%
    19:00 +1°C° 0 mm 3 mps 752 mmHg 82%
    20:00 0°C° 0 mm 3 mps 752 mmHg 82%
    21:00 -1°C° 0 mm 4 mps 751 mmHg 83%
    22:00 -1°C° 0 mm 4 mps 751 mmHg 83%
    23:00 -1°C° 0 mm 5 mps 750 mmHg 84%

    14 December, Thursday

    Time Temperature Precipitation Wind Pressure Humidity
    00:00 -1°C° 0 mm 5 mps 749 mmHg 85%
    01:00 -2°C° 0 mm 6 mps 748 mmHg 86%
    02:00 -1°C° 0 mm 6 mps 748 mmHg 87%
    03:00 -1°C° 0 mm 6 mps 747 mmHg 88%
    04:00 0°C° 0 mm 5 mps 746 mmHg 89%
    05:00 0°C° 0 mm 5 mps 746 mmHg 88%
    06:00 +1°C° 0 mm 5 mps 746 mmHg 86%
    07:00 +1°C° 0 mm 5 mps 746 mmHg 85%
    08:00 +3°C° 0.1 mm 4 mps 746 mmHg 84%
    09:00 +3°C° 0.1 mm 4 mps 746 mmHg 82%
    10:00 +4°C° 0.1 mm 3 mps 746 mmHg 81%
    11:00 +4°C° 0.2 mm 3 mps 746 mmHg 81%
    12:00 +4°C° 0.2 mm 3 mps 746 mmHg 81%
    13:00 +4°C° 0.2 mm 3 mps 746 mmHg 81%
    14:00 +4°C° 1 mm 3 mps 746 mmHg 84%
    15:00 +5°C° 1 mm 2 mps 746 mmHg 88%
    16:00 +4°C° 1 mm 2 mps 746 mmHg 91%
    17:00 +5°C° 0.6 mm 2 mps 745 mmHg 89%
    18:00 +5°C° 0.6 mm 2 mps 745 mmHg 88%
    19:00 +5°C° 0.6 mm 2 mps 745 mmHg 87%
    20:00 +4°C° 0.5 mm 3 mps 744 mmHg 87%
    21:00 +4°C° 0.5 mm 3 mps 744 mmHg 86%
    22:00 +4°C° 0.5 mm 4 mps 743 mmHg 86%
    23:00 +4°C° 0.1 mm 4 mps 742 mmHg 86%

    15 December, Friday

    Time Temperature Precipitation Wind Pressure Humidity
    00:00 +4°C° 0.1 mm 4 mps 742 mmHg 86%
    01:00 +4°C° 0.1 mm 4 mps 741 mmHg 85%
    02:00 +4°C° 0 mm 4 mps 740 mmHg 88%
    03:00 +4°C° 0 mm 4 mps 740 mmHg 90%
    04:00 +4°C° 0 mm 4 mps 740 mmHg 93%
    05:00 +4°C° 0 mm 4 mps 740 mmHg 89%
    06:00 +4°C° 0 mm 3 mps 741 mmHg 86%
    07:00 +3°C° 0 mm 3 mps 742 mmHg 83%
    08:00 +5°C° 0 mm 2 mps 742 mmHg 77%
    09:00 +5°C° 0 mm 2 mps 742 mmHg 72%
    10:00 +7°C° 0 mm 1 mps 743 mmHg 66%
    11:00 +6°C° 0 mm 2 mps 742 mmHg 63%
    12:00 +6°C° 0 mm 2 mps 742 mmHg 61%
    13:00 +6°C° 0 mm 2 mps 742 mmHg 59%
    14:00 +6°C° 0.2 mm 2 mps 742 mmHg 62%
    15:00 +5°C° 0.2 mm 2 mps 742 mmHg 65%
    16:00 +4°C° 0.2 mm 2 mps 741 mmHg 69%
    17:00 +4°C° 0.7 mm 2 mps 741 mmHg 73%
    18:00 +4°C° 0.7 mm 2 mps 741 mmHg 77%
    19:00 +3°C° 0.7 mm 2 mps 741 mmHg 81%
    20:00 +2°C° 1.1 mm 3 mps 740 mmHg 83%
    21:00 +1°C° 1.1 mm 3 mps 740 mmHg 85%
    22:00 +1°C° 1.1 mm 3 mps 740 mmHg 88%
    23:00 +1°C° 0.8 mm 3 mps 740 mmHg 88%

    16 December, Saturday

    Time Temperature Precipitation Wind Pressure Humidity
    00:00 +1°C° 0.8 mm 3 mps 740 mmHg 89%
    01:00 +1°C° 0.8 mm 3 mps 741 mmHg 90%
    02:00 0°C° 0 mm 3 mps 741 mmHg 89%
    03:00 +1°C° 0 mm 2 mps 741 mmHg 89%
    04:00 +1°C° 0 mm 2 mps 741 mmHg 89%
    05:00 +1°C° 0 mm 2 mps 741 mmHg 89%
    06:00 +1°C° 0 mm 2 mps 742 mmHg 89%
    07:00 +1°C° 0 mm 2 mps 742 mmHg 89%
    08:00 +1°C° 0 mm 2 mps 742 mmHg 90%
    09:00 +2°C° 0 mm 2 mps 743 mmHg 91%
    10:00 +2°C° 0 mm 2 mps 743 mmHg 92%
    11:00 +1°C° 0 mm 3 mps 743 mmHg 91%
    12:00 +2°C° 0 mm 3 mps 744 mmHg 90%
    13:00 +2°C° 0 mm 3 mps 744 mmHg 90%
    14:00 +2°C° 0 mm 3 mps 744 mmHg 88%
    15:00 +2°C° 0 mm 3 mps 745 mmHg 87%
    16:00 +1°C° 0 mm 3 mps 745 mmHg 85%
    17:00 +1°C° 0 mm 3 mps 746 mmHg 85%
    18:00 +1°C° 0 mm 3 mps 746 mmHg 84%
    19:00 0°C° 0 mm 3 mps 747 mmHg 84%
    20:00 0°C° 0 mm 3 mps 747 mmHg 84%
    21:00 -1°C° 0 mm 4 mps 747 mmHg 84%
    22:00 -2°C° 0 mm 4 mps 748 mmHg 85%
    23:00 -2°C° 0 mm 4 mps 748 mmHg 85%
    Show more